P/2010 LH155彗星

P/2010 LH155 (2025)

English version
Home page
Updated on May 27, 2025

---------------------------------------------------------------------

・ プロフィール

・ 写真集

・ 軌道要素

                    Epoch = 2025 Mar. 26.0 TT
     T = 2025 Apr.  9.00756 TT        Peri. = 308.51807
     e = 0.4059777                    Node  = 221.11908 2000.0
     q = 2.2240464 AU                 Incl. =   8.80684
       a =  3.7440455 AU   n = 0.13604807   P =   7.24 years

・ 光度変化

        m1 = -16.5 + 5 logΔ + 95 log r  [ ,0]  (              〜2025年 4月 9日)
        m1 =   6.0 + 5 logΔ + 30 log r  [0, ]  (2025年 4月 9日〜              )

        ※ 灰色の曲線は、H = 17.0  G = 0.15 の光度曲線です。

---------------------------------------------------------------------

軌道要素は、CBET 5540に掲載されたものです。
光度グラフはComet for Windowsで作成したものです。

---------------------------------------------------------------------

Copyright(C) Seiichi Yoshida (comet@aerith.net). All rights reserved.